{"data":{"norad_id":59603,"intl_designator":"2024-080C","name":"STARLINK-31776","alt_names":[],"object_type":"PAYLOAD","status":"ACTIVE","operator":null,"country":"US","launch_date":"2024-04-28","launch_site_code":"AFETR","launch_vehicle":null,"mission":null,"orbit_class":"UNKNOWN","rcs_meters":null,"size_class":null,"mass_kg":null,"dimensions":null,"purposes":["comms"],"wikipedia_slug":null,"has_3d_model":false,"image_url":null,"decayed_at":null,"tle_current":{"epoch":"2026-09-21T08:27:07.727328Z","epoch_age_seconds":94657,"freshness":"FRESH","line1":"1 59603U 24080C   26264.35217277 -.00005530  00000+0 -19147-3 0  9990","line2":"2 59603  43.0008  16.6314 0000899 287.9048  72.1706 15.27599782134416","mean_motion":15.27599782,"eccentricity":8.99e-5,"inclination_deg":43.0008,"raan_deg":16.6314,"arg_perigee_deg":287.9048,"mean_anomaly_deg":72.1706,"bstar":-0.00019147,"rev_number":13441,"period_min":94.265527984999,"perigee_km":482.37304694942,"apogee_km":483.60667755926,"semimajor_km":6861.1268622543,"source":"CELESTRAK","updated_at":"2026-09-22T09:00:49.009003Z"}}}